Regional Weather Roundup
Issued by NWS

Home | Current Version | Previous Version | Text Only | Print | Product List | Glossary On
Versions: 1 2 3 4 5 6 7 8 9 10 11 12 13 14 15 16 17 18 19 20 21 22 23 24 25 26 27
000
ASUS45 KTFX 291210
RWRMT
MONTANA REGIONAL WEATHER ROUNDUP
NATIONAL WEATHER SERVICE GREAT FALLS MT
600 AM MDT THU JUN 29 2017

NOTE: "FAIR" INDICATES FEW OR NO CLOUDS BELOW 12000 FEET WITH NO
SIGNIFICANT WEATHER AND/OR OBSTRUCTIONS TO VISIBILITY.

MTZ001>007-043-291300-
WEST OF THE DIVIDE

CITY           SKY/WX    TMP DP  RH WIND       PRES   REMARKS
KALISPELL      CLOUDY    54  47  77 N5        30.01R
MISSOULA       CLOUDY    58  46  64 SW10      30.01R
BUTTE          CLOUDY    43  36  76 CALM      30.07R
MULLAN PASS    CLOUDY    44  40  85 S5        30.08R
ANACONDA         N/A     45  34  65 SW6       30.06R
DEER LODGE       N/A     48  39  71 CALM      30.07R
EUREKA           N/A     48  45  87 CALM      30.04R
HAMILTON         N/A     50  39  66 CALM      30.03R
$$

MTZ008-052>055-291300-
SOUTHWEST MONTANA

CITY           SKY/WX    TMP DP  RH WIND       PRES   REMARKS
BOZEMAN        PTCLDY    44  42  93 SE5       30.03R
DILLON         PTCLDY    47  40  76 NE6       30.02R
W YELLOWSTONE  CLOUDY    36  36 100 CALM      30.12S
ENNIS          CLOUDY    46  43  87 E6        30.10R
THREE FORKS      N/A     46  43  90 CALM      30.02R
$$

MTZ009-010-012-014-046-048-049-054-291300-
EAST SLOPES AND CENTRAL MONTANA

CITY           SKY/WX    TMP DP  RH WIND       PRES   REMARKS
CUT BANK       MOCLDY    49  45  86 NW10      30.07R
GREAT FALLS    CLOUDY    52  45  77 SW5       30.07R
MALMSTROM AFB  MOCLDY    54  46  75 W6        30.07R
HELENA         MOCLDY    53  44  71 W6        30.04R
CHOTEAU          N/A     50  48  93 N5        30.09R
$$

MTZ011-013-016-021-045-047-050-051-291300-
NORTH CENTRAL MONTANA

CITY           SKY/WX    TMP DP  RH WIND       PRES   REMARKS
HAVRE          CLOUDY    54  48  80 W5        29.99R
LEWISTOWN      MOCLDY    51  43  74 W7        30.03R
N BAR RANCH    MOCLDY    54  43  66 NW15      30.01R
CHINOOK          N/A     54  46  76 W10       29.97R
FORT BENTON      N/A    N/A N/A N/A CALM      30.05R
$$

MTZ017>020-022>027-061-062-291300-
NORTHEAST MONTANA

CITY           SKY/WX    TMP DP  RH WIND       PRES   REMARKS
GLASGOW        CLEAR     51  45  79 NW14      29.84R
JORDAN           N/A     54  48  80 W9        29.86R
SIDNEY         PTCLDY    56  47  71 NW7       29.80R
WOLF POINT     CLOUDY    50  44  80 W6        29.82R
MALTA          CLEAR     55  46  71 W6        29.90R
PLENTYWOOD       N/A     54  48  82 CALM      29.83R
POPLAR           N/A     52  45  76 N3        29.82R
$$

MTZ028>42-056>058-291300-
SOUTHCENTRAL AND SOUTHEAST MONTANA

CITY           SKY/WX    TMP DP  RH WIND       PRES   REMARKS
BAKER          CLOUDY    59  50  72 W9        29.83S
BILLINGS       CLOUDY    61  41  47 W12       29.94R
LIVINGSTON     CLEAR     50  42  74 W15       30.03R
MILES CITY     CLOUDY    59  46  62 W6        29.82R
BIG TIMBER     CLEAR     48  43  81 W16       30.04R
LAUREL           N/A     55  41  59 CALM      29.95S
ROUNDUP          N/A     59  40  49 S6        29.88R
$$

REGIONAL REPORTS...DAKOTAS

CITY           SKY/WX    TMP DP  RH WIND       PRES   REMARKS
WILLISTON      CLOUDY    55  48  77 CALM      29.81R
MINOT          CLOUDY    58  51  78 SW5       29.80R
DICKINSON      CLOUDY    58  44  60 CALM      29.79R
BEACH            N/A     54  46  76 NW6       29.83F
CROSBY         MOCLDY    54  54 100 W5        29.82R
TIOGA          MOCLDY    50  50 100 E6        29.83S
WATFORD CITY   MOCLDY    46  46 100 CALM      29.81R
BISMARCK       CLOUDY    60  55  83 CALM      29.80S
GRAND FORKS    CLOUDY    61  61 100 NE6       29.74F FOG
FARGO          CLOUDY    62  60  93 N7        29.74S
BUFFALO SD       N/A     58  55  90 W17       29.79R
RAPID CITY     CLOUDY    59  52  77 N12       29.85R
$$

REGIONAL REPORTS...WYOMING/IDAHO/WASHINGTON

CITY           SKY/WX    TMP DP  RH WIND       PRES   REMARKS
GILLETTE       CLEAR     51  48  89 NW7       29.95R
SHERIDAN       CLEAR     44  41  89 CALM      29.94R
BUFFALO WY     CLEAR     49  42  77 NW8       29.97R
CODY           CLOUDY    50  39  66 N5        30.04R
YELLOWSTONE LA   N/A     32  32 100 CALM      30.16R
IDAHO FALLS    CLEAR     48  44  86 NE6       30.03R
SALMON         PTCLDY    48  45  87 CALM      30.02R
BOISE          CLEAR     57  39  51 CALM      29.98R
SPOKANE        PTCLDY    51  51 100 N3        30.02R
$$

REGIONAL REPORTS...ALBERTA

CITY           SKY/WX    TMP DP  RH WIND       PRES   REMARKS
EDMONTON       CLEAR     45  45 100 SW5       30.03S
CALGARY        MOCLDY    52  45  76 NW9       30.08R
LETHBRIDGE     MOCLDY    54  48  82 NW14      30.05R
MEDICINE HAT   CLOUDY    54  52  94 NW10      29.98R
WATERTON GATE    N/A     46  45  93 SW1         N/A
CARDSTON         N/A     50  46  87 NW3         N/A
MILK RIVER       N/A     52  48  87 NW9         N/A
$$

REGIONAL REPORTS...SASKATCHEWAN

CITY           SKY/WX    TMP DP  RH WIND       PRES   REMARKS
SWIFT CURRENT  MOCLDY    50  50 100 W10       29.89R
REGINA         PTCLDY    48  48 100 NW12      29.85R
SASKATOON      MOCLDY    48  45  87 N15       29.92R
CYPRESS HILLS    N/A     48  45  87 NW8         N/A
VAL MARIE        N/A     48  45  87 N3          N/A
ROCKGLEN         N/A     50  46  87 N7          N/A
ASSINIBOIA       N/A     45  43  93 W2          N/A
$$




USA.gov is the U.S. government's official web portal to all federal, state and local government web resources and services.